Doylestown, PA

11:50 PM EST on January 21, 2018 (GMT -0500)
Doylestown

Weather History for KDYL - March, 2013

Change the Weather History Date:

Sunday, March 31, 2013

  Actual Average (KTTN) Record (KTTN)
Temperature  
Mean Temperature 44 °F -  
Max Temperature 54 °F 53 °F 82 °F (1998)
Min Temperature 34 °F 36 °F 17 °F (1923)
Degree Days  
Heating Degree Days 21    
Moisture  
Dew Point 36 °F    
Average Humidity 77    
Maximum Humidity 100    
Minimum Humidity 38    
Precipitation  
Precipitation 0.25 in - - ()
Sea Level Pressure  
Sea Level Pressure 29.91 in    
Wind  
Wind Speed 4 mph (South)    
Max Wind Speed 17 mph    
Max Gust Speed 24 mph    
Visibility 8 miles    
Events Rain    
Averages and records for this station are not official NWS values.
T = Trace of Precipitation, MM = Missing Value Source: NWS Daily Summary

Daily Weather History Graph

Daily Weather History Graph

Search for Another Location

Airport or City:

Trip Planner

Search our weather history database for the weather conditions in past years. The results will help you decide how hot, cold, wet, or windy it might be!

Date:

Astronomy

Mar. 31, 2013 Rise Set
Actual Time 6:45 AM EDT 7:24 PM EDT
Civil Twilight 6:18 AM EDT 7:51 PM EDT
Nautical Twilight 5:45 AM EDT 8:24 PM EDT
Astronomical Twilight 5:12 AM EDT 8:57 PM EDT
Moon No Moon Rise 9:30 AM EDT (3/31)
Length of Visible Light 13h 33m
Length of Day
12h 38m
Waning Gibbous, 78% of the Moon is Illuminated
Mar 31
Waning Gibbous
Apr 3
Last Quarter
Apr 10
New
Apr 18
First Quarter
Apr 25
Full

Hourly Weather History & Observations

Time (EDT) Temp. Windchill Dew Point Humidity Pressure Visibility Wind Dir Wind Speed Gust Speed Precip Events Conditions
12:54 AM 39.9 °F 37.8 °F 24.1 °F 53% 30.13 in 10.0 mi SSW 3.5 mph - N/A   Clear
1:54 AM 37.0 °F - 26.1 °F 65% 30.13 in 10.0 mi Calm Calm - N/A   Clear
2:54 AM 35.1 °F - 26.1 °F 70% 30.12 in 10.0 mi Calm Calm - N/A   Unknown
3:54 AM 36.0 °F - 28.0 °F 73% 30.11 in 10.0 mi Calm Calm - N/A   Clear
4:54 AM 34.0 °F - 28.0 °F 79% 30.10 in 10.0 mi Calm Calm - N/A   Clear
5:54 AM 34.0 °F - 28.0 °F 79% 30.09 in 10.0 mi Calm Calm - N/A   Clear
6:54 AM 34.0 °F - 28.0 °F 79% 30.08 in 10.0 mi Calm Calm - N/A   Clear
7:54 AM 36.0 °F - 30.0 °F 79% 30.08 in 10.0 mi Calm Calm - N/A   Clear
8:54 AM 41.0 °F 38.0 °F 33.1 °F 73% 30.08 in 10.0 mi SSE 4.6 mph - N/A   Clear
9:54 AM 46.0 °F 42.5 °F 33.1 °F 61% 30.06 in 10.0 mi SSE 6.9 mph - N/A   Clear
10:54 AM 51.1 °F - 28.9 °F 43% 30.02 in 10.0 mi SSE 6.9 mph 18.4 mph N/A   Clear
11:54 AM 53.1 °F - 28.0 °F 38% 29.99 in 10.0 mi SE 12.7 mph 20.7 mph N/A   Clear
12:54 PM 54.0 °F - 30.0 °F 40% 29.96 in 10.0 mi SSE 11.5 mph 19.6 mph N/A   Scattered Clouds
1:54 PM 53.1 °F - 32.0 °F 45% 29.92 in 10.0 mi SSE 12.7 mph 23.0 mph 0.00 in   Overcast
2:54 PM 54.0 °F - 33.1 °F 45% 29.88 in 10.0 mi Variable 5.8 mph - N/A   Overcast
3:54 PM 52.0 °F - 37.9 °F 59% 29.86 in 10.0 mi SSE 17.3 mph 24.2 mph 0.00 in Rain Light Rain
4:30 PM 46.4 °F 42.9 °F 42.8 °F 87% 29.83 in 10.0 mi SE 6.9 mph 19.6 mph 0.02 in Rain Light Rain
4:54 PM 46.0 °F - 44.1 °F 93% 29.83 in 10.0 mi Calm Calm - 0.03 in Rain Light Rain
5:14 PM 46.4 °F 45.2 °F 44.6 °F 93% 29.81 in 5.0 mi Variable 3.5 mph - 0.02 in Rain Light Rain
5:34 PM 44.6 °F 42.2 °F 44.6 °F 100% 29.80 in 2.5 mi Variable 4.6 mph - 0.08 in Rain Rain
5:52 PM 44.6 °F 42.2 °F 44.6 °F 100% 29.79 in 4.0 mi Variable 4.6 mph - 0.11 in Rain Light Rain
5:54 PM 45.0 °F - 44.1 °F 97% 29.81 in 4.0 mi Calm Calm - 0.11 in Rain Light Rain
6:54 PM 45.0 °F 43.5 °F 44.1 °F 97% 29.77 in 4.0 mi Variable 3.5 mph - 0.10 in Rain Light Rain
7:01 PM 44.6 °F 43.1 °F 44.6 °F 100% 29.74 in 5.0 mi Variable 3.5 mph - 0.00 in   Overcast
9:38 PM 44.6 °F - 44.6 °F 100% 29.71 in 4.0 mi Calm Calm - 0.00 in   Overcast
10:54 PM 45.0 °F 43.5 °F 45.0 °F 100% 29.72 in 3.0 mi WSW 3.5 mph - 0.01 in   Overcast
11:20 PM 46.4 °F 42.4 °F 46.4 °F 100% 29.70 in 9.0 mi WSW 8.1 mph - N/A   Overcast
11:32 PM 46.4 °F 44.3 °F 46.4 °F 100% 29.70 in 10.0 mi West 4.6 mph - N/A   Overcast
11:54 PM 46.0 °F 43.1 °F 45.0 °F 96% 29.71 in 10.0 mi Variable 5.8 mph - N/A   Overcast